owner,sensor,date,latitude,longitude,vertical_datum,direction_of_sea_water_velocity,sea_water_speed,upward_sea_water_velocity,qcFlag 
TABS,ioos:station:wmo:42051:1,2016-08-01T00:00:00Z,29.6350,-93.6417,2.0,106.4812337,3.524826237,-99999.0,'11133222,11111222,99999999' 
TABS,ioos:station:wmo:42051:1,2016-08-01T00:30:00Z,29.6350,-93.6417,2.0,70.11488139,4.9979996,-99999.0,'11133222,11111222,99999999' 
TABS,ioos:station:wmo:42051:1,2016-08-01T01:00:00Z,29.6350,-93.6417,2.0,93.65221424,2.825738841,-99999.0,'11133222,11111222,99999999' 
TABS,ioos:station:wmo:42051:1,2016-08-01T01:30:00Z,29.6350,-93.6417,2.0,80.59804286,3.1219385,-99999.0,'11133222,11111222,99999999' 
TABS,ioos:station:wmo:42051:1,2016-08-01T02:00:00Z,29.6350,-93.6417,2.0,47.56958575,10.56772918,-99999.0,'11111222,11111222,99999999' 
TABS,ioos:station:wmo:42051:1,2016-08-01T02:30:00Z,29.6350,-93.6417,2.0,46.88964942,13.0815175,-99999.0,'11111222,11111222,99999999' 
TABS,ioos:station:wmo:42051:1,2016-08-01T03:00:00Z,29.6350,-93.6417,2.0,41.61137822,14.95317023,-99999.0,'11111222,11111222,99999999' 
TABS,ioos:station:wmo:42051:1,2016-08-01T03:30:00Z,29.6350,-93.6417,2.0,42.76129214,13.75665657,-99999.0,'11111222,11111222,99999999' 
TABS,ioos:station:wmo:42051:1,2016-08-01T04:00:00Z,29.6350,-93.6417,2.0,41.30872787,13.61884723,-99999.0,'11111222,11111222,99999999' 
TABS,ioos:station:wmo:42051:1,2016-08-01T04:30:00Z,29.6350,-93.6417,2.0,27.33764134,15.59128282,-99999.0,'11111222,11111222,99999999' 
TABS,ioos:station:wmo:42051:1,2016-08-01T05:00:00Z,29.6350,-93.6417,2.0,25.82216851,16.20838363,-99999.0,'11111222,11111222,99999999' 
TABS,ioos:station:wmo:42051:1,2016-08-01T05:30:00Z,29.6350,-93.6417,2.0,37.84560212,13.62597519,-99999.0,'11111222,11111222,99999999' 
TABS,ioos:station:wmo:42051:1,2016-08-01T06:00:00Z,29.6350,-93.6417,2.0,44.40492857,12.93368084,-99999.0,'11111222,11111222,99999999' 
TABS,ioos:station:wmo:42051:1,2016-08-01T06:30:00Z,29.6350,-93.6417,2.0,55.70083011,10.43450047,-99999.0,'11111222,11111222,99999999' 
TABS,ioos:station:wmo:42051:1,2016-08-01T07:00:00Z,29.6350,-93.6417,2.0,58.88993764,12.7543914,-99999.0,'11111222,11111222,99999999' 
TABS,ioos:station:wmo:42051:1,2016-08-01T07:30:00Z,29.6350,-93.6417,2.0,71.61181538,11.63402338,-99999.0,'11111222,11111222,99999999' 
TABS,ioos:station:wmo:42051:1,2016-08-01T08:00:00Z,29.6350,-93.6417,2.0,64.23769952,12.76920123,-99999.0,'11111222,11111222,99999999' 
TABS,ioos:station:wmo:42051:1,2016-08-01T08:30:00Z,29.6350,-93.6417,2.0,75.37275273,15.04771079,-99999.0,'11111222,11111222,99999999' 
TABS,ioos:station:wmo:42051:1,2016-08-01T09:00:00Z,29.6350,-93.6417,2.0,91.06222029,16.18278097,-99999.0,'11111222,11111222,99999999' 
TABS,ioos:station:wmo:42051:1,2016-08-01T09:30:00Z,29.6350,-93.6417,2.0,91.98616483,19.331614,-99999.0,'11111222,11111222,99999999' 
TABS,ioos:station:wmo:42051:1,2016-08-01T10:00:00Z,29.6350,-93.6417,2.0,94.34439537,18.61348167,-99999.0,'11111222,11111222,99999999' 
TABS,ioos:station:wmo:42051:1,2016-08-01T10:30:00Z,29.6350,-93.6417,2.0,105.1429287,19.71454793,-99999.0,'11111222,11111222,99999999' 
TABS,ioos:station:wmo:42051:1,2016-08-01T11:00:00Z,29.6350,-93.6417,2.0,97.44328654,20.76497532,-99999.0,'11111222,11111222,99999999' 
TABS,ioos:station:wmo:42051:1,2016-08-01T11:30:00Z,29.6350,-93.6417,2.0,112.413908,21.19090607,-99999.0,'11111222,11111222,99999999' 
TABS,ioos:station:wmo:42051:1,2016-08-01T12:00:00Z,29.6350,-93.6417,2.0,109.7814543,22.3381736,-99999.0,'11111222,11111222,99999999' 
TABS,ioos:station:wmo:42051:1,2016-08-01T12:30:00Z,29.6350,-93.6417,2.0,100.6693857,21.92911535,-99999.0,'11111222,11111222,99999999' 
TABS,ioos:station:wmo:42051:1,2016-08-01T13:00:00Z,29.6350,-93.6417,2.0,116.8649635,25.62569023,-99999.0,'11111222,11111222,99999999' 
TABS,ioos:station:wmo:42051:1,2016-08-01T13:30:00Z,29.6350,-93.6417,2.0,110.1721023,22.01008178,-99999.0,'11111222,11111222,99999999' 
TABS,ioos:station:wmo:42051:1,2016-08-01T14:00:00Z,29.6350,-93.6417,2.0,121.7579744,16.20645859,-99999.0,'11111222,11111222,99999999' 
TABS,ioos:station:wmo:42051:1,2016-08-01T14:30:00Z,29.6350,-93.6417,2.0,117.8605744,14.63657064,-99999.0,'11111222,11111222,99999999' 
TABS,ioos:station:wmo:42051:1,2016-08-01T15:00:00Z,29.6350,-93.6417,2.0,116.4377599,12.08374114,-99999.0,'11111222,11111222,99999999' 
TABS,ioos:station:wmo:42051:1,2016-08-01T15:30:00Z,29.6350,-93.6417,2.0,113.4761457,13.27917543,-99999.0,'11111222,11111222,99999999' 
TABS,ioos:station:wmo:42051:1,2016-08-01T16:00:00Z,29.6350,-93.6417,2.0,133.3979398,9.358680463,-99999.0,'11133222,11111222,99999999' 
TABS,ioos:station:wmo:42051:1,2016-08-01T16:30:00Z,29.6350,-93.6417,2.0,98.29712557,6.306005075,-99999.0,'11133222,11111222,99999999' 
TABS,ioos:station:wmo:42051:1,2016-08-01T17:00:00Z,29.6350,-93.6417,2.0,109.4874632,6.0251556,-99999.0,'11133222,11111222,99999999' 
TABS,ioos:station:wmo:42051:1,2016-08-01T17:30:00Z,29.6350,-93.6417,2.0,156.5618578,3.77115367,-99999.0,'11133222,11111222,99999999' 
TABS,ioos:station:wmo:42051:1,2016-08-01T18:00:00Z,29.6350,-93.6417,2.0,148.8512814,3.18989028,-99999.0,'11133222,11111222,99999999' 
TABS,ioos:station:wmo:42051:1,2016-08-01T18:30:00Z,29.6350,-93.6417,2.0,194.9311718,4.812494156,-99999.0,'11133222,11111222,99999999' 
TABS,ioos:station:wmo:42051:1,2016-08-01T19:00:00Z,29.6350,-93.6417,2.0,192.8994528,4.524179484,-99999.0,'11133222,11111222,99999999' 
TABS,ioos:station:wmo:42051:1,2016-08-01T19:30:00Z,29.6350,-93.6417,2.0,156.7052808,1.567801008,-99999.0,'11133222,11111222,99999999' 
TABS,ioos:station:wmo:42051:1,2016-08-01T20:00:00Z,29.6350,-93.6417,2.0,159.3198029,5.408484076,-99999.0,'11133222,11111222,99999999' 
TABS,ioos:station:wmo:42051:1,2016-08-01T20:30:00Z,29.6350,-93.6417,2.0,171.7118674,2.566807355,-99999.0,'11133222,11111222,99999999' 
TABS,ioos:station:wmo:42051:1,2016-08-01T21:00:00Z,29.6350,-93.6417,2.0,212.2917692,4.660869018,-99999.0,'11133222,11111222,99999999' 
TABS,ioos:station:wmo:42051:1,2016-08-01T21:30:00Z,29.6350,-93.6417,2.0,200.6650136,5.5255226,-99999.0,'11133222,11111222,99999999' 
TABS,ioos:station:wmo:42051:1,2016-08-01T22:00:00Z,29.6350,-93.6417,2.0,175.4171873,2.628402557,-99999.0,'11133222,11111222,99999999' 
TABS,ioos:station:wmo:42051:1,2016-08-01T22:30:00Z,29.6350,-93.6417,2.0,208.7673716,2.909037642,-99999.0,'11133222,11111222,99999999' 
TABS,ioos:station:wmo:42051:1,2016-08-01T23:00:00Z,29.6350,-93.6417,2.0,166.6365347,4.543005613,-99999.0,'11133222,11111222,99999999' 
TABS,ioos:station:wmo:42051:1,2016-08-01T23:30:00Z,29.6350,-93.6417,2.0,198.112813,2.251577225,-99999.0,'11133222,11111222,99999999' 
TABS,ioos:station:wmo:42051:1,2016-08-02T00:00:00Z,29.6350,-93.6417,2.0,83.78078485,1.569235483,-99999.0,'11133222,11111222,99999999' 
TABS,ioos:station:wmo:42051:1,2016-08-02T00:30:00Z,29.6350,-93.6417,2.0,52.87080362,3.976040744,-99999.0,'11133222,11111222,99999999' 
TABS,ioos:station:wmo:42051:1,2016-08-02T01:00:00Z,29.6350,-93.6417,2.0,86.13032076,5.48249943,-99999.0,'11133222,11111222,99999999' 
TABS,ioos:station:wmo:42051:1,2016-08-02T01:30:00Z,29.6350,-93.6417,2.0,43.86424481,13.911524,-99999.0,'11111222,11111222,99999999' 
TABS,ioos:station:wmo:42051:1,2016-08-02T02:00:00Z,29.6350,-93.6417,2.0,42.33711069,14.61046201,-99999.0,'11111222,11111222,99999999' 
TABS,ioos:station:wmo:42051:1,2016-08-02T02:30:00Z,29.6350,-93.6417,2.0,50.01320726,15.77934409,-99999.0,'11111222,11111222,99999999' 
TABS,ioos:station:wmo:42051:1,2016-08-02T03:00:00Z,29.6350,-93.6417,2.0,27.27235252,19.2048145,-99999.0,'11111222,11111222,99999999' 
TABS,ioos:station:wmo:42051:1,2016-08-02T03:30:00Z,29.6350,-93.6417,2.0,35.49459577,18.49732954,-99999.0,'11111222,11111222,99999999' 
TABS,ioos:station:wmo:42051:1,2016-08-02T04:00:00Z,29.6350,-93.6417,2.0,29.80489224,21.36623505,-99999.0,'11111222,11111222,99999999' 
TABS,ioos:station:wmo:42051:1,2016-08-02T04:30:00Z,29.6350,-93.6417,2.0,25.74770571,22.88177659,-99999.0,'11111222,11111222,99999999' 
TABS,ioos:station:wmo:42051:1,2016-08-02T05:00:00Z,29.6350,-93.6417,2.0,34.58954189,22.61791325,-99999.0,'11111222,11111222,99999999' 
TABS,ioos:station:wmo:42051:1,2016-08-02T05:30:00Z,29.6350,-93.6417,2.0,37.86704652,24.9417762,-99999.0,'11111222,11111222,99999999' 
TABS,ioos:station:wmo:42051:1,2016-08-02T06:00:00Z,29.6350,-93.6417,2.0,38.58786339,22.35004474,-99999.0,'11111222,11111222,99999999' 
TABS,ioos:station:wmo:42051:1,2016-08-02T06:30:00Z,29.6350,-93.6417,2.0,39.10995218,20.87795249,-99999.0,'11111222,11111222,99999999' 
TABS,ioos:station:wmo:42051:1,2016-08-02T07:00:00Z,29.6350,-93.6417,2.0,32.2770048,20.80481194,-99999.0,'11111222,11111222,99999999' 
TABS,ioos:station:wmo:42051:1,2016-08-02T07:30:00Z,29.6350,-93.6417,2.0,38.57013553,22.92008944,-99999.0,'11111222,11111222,99999999' 
TABS,ioos:station:wmo:42051:1,2016-08-02T08:00:00Z,29.6350,-93.6417,2.0,48.43694908,17.57492816,-99999.0,'11111222,11111222,99999999' 
TABS,ioos:station:wmo:42051:1,2016-08-02T08:30:00Z,29.6350,-93.6417,2.0,52.99154239,16.5300484,-99999.0,'11111222,11111222,99999999' 
TABS,ioos:station:wmo:42051:1,2016-08-02T09:00:00Z,29.6350,-93.6417,2.0,60.0497782,15.2228808,-99999.0,'11111222,11111222,99999999' 
TABS,ioos:station:wmo:42051:1,2016-08-02T09:30:00Z,29.6350,-93.6417,2.0,66.30092008,14.57950959,-99999.0,'11111222,11111222,99999999' 
TABS,ioos:station:wmo:42051:1,2016-08-02T10:00:00Z,29.6350,-93.6417,2.0,92.89126284,10.90388004,-99999.0,'11111222,11111222,99999999' 
TABS,ioos:station:wmo:42051:1,2016-08-02T10:30:00Z,29.6350,-93.6417,2.0,105.9119579,11.78141757,-99999.0,'11111222,11111222,99999999' 
TABS,ioos:station:wmo:42051:1,2016-08-02T11:00:00Z,29.6350,-93.6417,2.0,119.0439825,10.54622207,-99999.0,'11111222,11111222,99999999' 
TABS,ioos:station:wmo:42051:1,2016-08-02T11:30:00Z,29.6350,-93.6417,2.0,112.0043024,14.67930857,-99999.0,'11111222,11111222,99999999' 
TABS,ioos:station:wmo:42051:1,2016-08-02T12:00:00Z,29.6350,-93.6417,2.0,133.2720925,12.42951729,-99999.0,'11111222,11111222,99999999' 
TABS,ioos:station:wmo:42051:1,2016-08-02T12:30:00Z,29.6350,-93.6417,2.0,124.8792692,14.16454729,-99999.0,'11111222,11111222,99999999' 
TABS,ioos:station:wmo:42051:1,2016-08-02T13:00:00Z,29.6350,-93.6417,2.0,124.1031497,17.69262276,-99999.0,'11111222,11111222,99999999' 
TABS,ioos:station:wmo:42051:1,2016-08-02T13:30:00Z,29.6350,-93.6417,2.0,123.5175342,15.6648045,-99999.0,'11111222,11111222,99999999' 
TABS,ioos:station:wmo:42051:1,2016-08-02T14:00:00Z,29.6350,-93.6417,2.0,133.1522888,15.79083278,-99999.0,'11111222,11111222,99999999' 
TABS,ioos:station:wmo:42051:1,2016-08-02T14:30:00Z,29.6350,-93.6417,2.0,132.0455457,11.66154792,-99999.0,'11111222,11111222,99999999' 
TABS,ioos:station:wmo:42051:1,2016-08-02T15:00:00Z,29.6350,-93.6417,2.0,131.3412779,10.7487162,-99999.0,'11111222,11111222,99999999' 
TABS,ioos:station:wmo:42051:1,2016-08-02T15:30:00Z,29.6350,-93.6417,2.0,151.048862,11.27956116,-99999.0,'11111222,11111222,99999999' 
TABS,ioos:station:wmo:42051:1,2016-08-02T16:00:00Z,29.6350,-93.6417,2.0,151.1814532,9.895544452,-99999.0,'11133222,11111222,99999999' 
TABS,ioos:station:wmo:42051:1,2016-08-02T16:30:00Z,29.6350,-93.6417,2.0,155.7951707,7.926878326,-99999.0,'11133222,11111222,99999999' 
TABS,ioos:station:wmo:42051:1,2016-08-02T17:00:00Z,29.6350,-93.6417,2.0,182.9745559,7.129607282,-99999.0,'11133222,11111222,99999999' 
TABS,ioos:station:wmo:42051:1,2016-08-02T17:30:00Z,29.6350,-93.6417,2.0,185.148944,8.02237496,-99999.0,'11133222,11111222,99999999' 
TABS,ioos:station:wmo:42051:1,2016-08-02T18:00:00Z,29.6350,-93.6417,2.0,220.0725859,6.586288788,-99999.0,'11133222,11111222,99999999' 
TABS,ioos:station:wmo:42051:1,2016-08-02T18:30:00Z,29.6350,-93.6417,2.0,245.1994437,9.583861435,-99999.0,'11133222,11111222,99999999' 
TABS,ioos:station:wmo:42051:1,2016-08-02T19:00:00Z,29.6350,-93.6417,2.0,214.505664,11.49177967,-99999.0,'11111222,11111222,99999999' 
TABS,ioos:station:wmo:42051:1,2016-08-02T19:30:00Z,29.6350,-93.6417,2.0,223.7206756,12.03795664,-99999.0,'11111222,11111222,99999999' 
TABS,ioos:station:wmo:42051:1,2016-08-02T20:00:00Z,29.6350,-93.6417,2.0,228.2048927,10.62321985,-99999.0,'11111222,11111222,99999999' 
TABS,ioos:station:wmo:42051:1,2016-08-02T20:30:00Z,29.6350,-93.6417,2.0,251.5481949,10.99523988,-99999.0,'11111222,11111222,99999999' 
TABS,ioos:station:wmo:42051:1,2016-08-02T21:00:00Z,29.6350,-93.6417,2.0,243.7507343,10.53651271,-99999.0,'11111222,11111222,99999999' 
TABS,ioos:station:wmo:42051:1,2016-08-02T21:30:00Z,29.6350,-93.6417,2.0,263.5921538,9.408772502,-99999.0,'11133222,11111222,99999999' 
TABS,ioos:station:wmo:42051:1,2016-08-02T22:00:00Z,29.6350,-93.6417,2.0,284.1716352,10.2932405,-99999.0,'11111222,11111222,99999999' 
TABS,ioos:station:wmo:42051:1,2016-08-02T22:30:00Z,29.6350,-93.6417,2.0,285.5549558,10.06876358,-99999.0,'11111222,11111222,99999999' 
TABS,ioos:station:wmo:42051:1,2016-08-02T23:00:00Z,29.6350,-93.6417,2.0,308.3954956,10.14359404,-99999.0,'11111222,11111222,99999999' 
TABS,ioos:station:wmo:42051:1,2016-08-02T23:30:00Z,29.6350,-93.6417,2.0,330.2734087,11.83787565,-99999.0,'11111222,11111222,99999999' 
TABS,ioos:station:wmo:42051:1,2016-08-03T00:00:00Z,29.6350,-93.6417,2.0,336.9343428,13.04270294,-99999.0,'11111222,11111222,99999999' 
TABS,ioos:station:wmo:42051:1,2016-08-03T00:30:00Z,29.6350,-93.6417,2.0,350.2935807,14.64972696,-99999.0,'11111222,11111222,99999999' 
TABS,ioos:station:wmo:42051:1,2016-08-03T01:00:00Z,29.6350,-93.6417,2.0,10.4748448,22.33215619,-99999.0,'11111222,11111222,99999999' 
TABS,ioos:station:wmo:42051:1,2016-08-03T01:30:00Z,29.6350,-93.6417,2.0,9.934621142,18.9542027,-99999.0,'11111222,11111222,99999999' 
TABS,ioos:station:wmo:42051:1,2016-08-03T02:00:00Z,29.6350,-93.6417,2.0,18.25887952,19.53348151,-99999.0,'11111222,11111222,99999999' 
TABS,ioos:station:wmo:42051:1,2016-08-03T02:30:00Z,29.6350,-93.6417,2.0,20.82566679,22.89584242,-99999.0,'11111222,11111222,99999999' 
TABS,ioos:station:wmo:42051:1,2016-08-03T03:00:00Z,29.6350,-93.6417,2.0,27.67759653,18.42867331,-99999.0,'11111222,11111222,99999999' 
TABS,ioos:station:wmo:42051:1,2016-08-03T03:30:00Z,29.6350,-93.6417,2.0,23.96969821,16.49226789,-99999.0,'11111222,11111222,99999999' 
TABS,ioos:station:wmo:42051:1,2016-08-03T04:00:00Z,29.6350,-93.6417,2.0,27.63425872,16.2993006,-99999.0,'11111222,11111222,99999999' 
TABS,ioos:station:wmo:42051:1,2016-08-03T04:30:00Z,29.6350,-93.6417,2.0,50.18599712,8.605358796,-99999.0,'11133222,11111222,99999999' 
TABS,ioos:station:wmo:42051:1,2016-08-03T05:00:00Z,29.6350,-93.6417,2.0,40.62293235,17.32515224,-99999.0,'11111222,11111222,99999999' 
TABS,ioos:station:wmo:42051:1,2016-08-03T05:30:00Z,29.6350,-93.6417,2.0,51.16871979,14.08225124,-99999.0,'11111222,11111222,99999999' 
TABS,ioos:station:wmo:42051:1,2016-08-03T06:00:00Z,29.6350,-93.6417,2.0,60.92880652,10.02269924,-99999.0,'11111222,11111222,99999999' 
TABS,ioos:station:wmo:42051:1,2016-08-03T06:30:00Z,29.6350,-93.6417,2.0,55.69315691,12.88088506,-99999.0,'11111222,11111222,99999999' 
TABS,ioos:station:wmo:42051:1,2016-08-03T07:00:00Z,29.6350,-93.6417,2.0,62.81895248,7.070855677,-99999.0,'11133222,11111222,99999999' 
TABS,ioos:station:wmo:42051:1,2016-08-03T07:30:00Z,29.6350,-93.6417,2.0,43.75719944,3.585875068,-99999.0,'11133222,11111222,99999999' 
TABS,ioos:station:wmo:42051:1,2016-08-03T08:00:00Z,29.6350,-93.6417,2.0,88.94442078,5.971013314,-99999.0,'11133222,11111222,99999999' 
TABS,ioos:station:wmo:42051:1,2016-08-03T08:30:00Z,29.6350,-93.6417,2.0,96.5595084,12.69309261,-99999.0,'11111222,11111222,99999999' 
TABS,ioos:station:wmo:42051:1,2016-08-03T09:00:00Z,29.6350,-93.6417,2.0,104.7653886,18.67675561,-99999.0,'11111222,11111222,99999999' 
TABS,ioos:station:wmo:42051:1,2016-08-03T09:30:00Z,29.6350,-93.6417,2.0,121.5658082,17.13536985,-99999.0,'11111222,11111222,99999999' 
TABS,ioos:station:wmo:42051:1,2016-08-03T10:00:00Z,29.6350,-93.6417,2.0,123.1575007,18.50282411,-99999.0,'11111222,11111222,99999999' 
TABS,ioos:station:wmo:42051:1,2016-08-03T10:30:00Z,29.6350,-93.6417,2.0,130.9840954,17.3667556,-99999.0,'11111222,11111222,99999999' 
TABS,ioos:station:wmo:42051:1,2016-08-03T11:00:00Z,29.6350,-93.6417,2.0,140.2103484,18.29775123,-99999.0,'11111222,11111222,99999999' 
TABS,ioos:station:wmo:42051:1,2016-08-03T11:30:00Z,29.6350,-93.6417,2.0,134.560397,20.28041913,-99999.0,'11111222,11111222,99999999' 
TABS,ioos:station:wmo:42051:1,2016-08-03T12:00:00Z,29.6350,-93.6417,2.0,147.7038887,17.55591069,-99999.0,'11111222,11111222,99999999' 
TABS,ioos:station:wmo:42051:1,2016-08-03T12:30:00Z,29.6350,-93.6417,2.0,144.0422716,18.71637251,-99999.0,'11111222,11111222,99999999' 
TABS,ioos:station:wmo:42051:1,2016-08-03T13:00:00Z,29.6350,-93.6417,2.0,147.4064035,17.97003061,-99999.0,'11111222,11111222,99999999' 
TABS,ioos:station:wmo:42051:1,2016-08-03T13:30:00Z,29.6350,-93.6417,2.0,153.5138835,12.96026234,-99999.0,'11111222,11111222,99999999' 
TABS,ioos:station:wmo:42051:1,2016-08-03T14:00:00Z,29.6350,-93.6417,2.0,153.8139088,15.54548488,-99999.0,'11111222,11111222,99999999' 
TABS,ioos:station:wmo:42051:1,2016-08-03T14:30:00Z,29.6350,-93.6417,2.0,163.7057802,15.57560272,-99999.0,'11111222,11111222,99999999' 
TABS,ioos:station:wmo:42051:1,2016-08-03T15:00:00Z,29.6350,-93.6417,2.0,172.9585554,12.72597737,-99999.0,'11111222,11111222,99999999' 
TABS,ioos:station:wmo:42051:1,2016-08-03T15:30:00Z,29.6350,-93.6417,2.0,187.3577859,9.760373968,-99999.0,'11133222,11111222,99999999' 
TABS,ioos:station:wmo:42051:1,2016-08-03T16:00:00Z,29.6350,-93.6417,2.0,200.1168399,8.40263054,-99999.0,'11133222,11111222,99999999' 
TABS,ioos:station:wmo:42051:1,2016-08-03T16:30:00Z,29.6350,-93.6417,2.0,204.8921391,7.507442973,-99999.0,'11133222,11111222,99999999' 
TABS,ioos:station:wmo:42051:1,2016-08-03T17:00:00Z,29.6350,-93.6417,2.0,217.2134765,8.664156047,-99999.0,'11133222,11111222,99999999' 
TABS,ioos:station:wmo:42051:1,2016-08-03T17:30:00Z,29.6350,-93.6417,2.0,244.2010412,6.686441505,-99999.0,'11133222,11111222,99999999' 
TABS,ioos:station:wmo:42051:1,2016-08-03T18:00:00Z,29.6350,-93.6417,2.0,256.460678,6.70636265,-99999.0,'11133222,11111222,99999999' 
TABS,ioos:station:wmo:42051:1,2016-08-03T18:30:00Z,29.6350,-93.6417,2.0,231.023112,7.344964261,-99999.0,'11133222,11111222,99999999' 
TABS,ioos:station:wmo:42051:1,2016-08-03T19:00:00Z,29.6350,-93.6417,2.0,247.1344018,8.801619169,-99999.0,'11133222,11111222,99999999' 
TABS,ioos:station:wmo:42051:1,2016-08-03T19:30:00Z,29.6350,-93.6417,2.0,265.8492173,10.08645131,-99999.0,'11111222,11111222,99999999' 
TABS,ioos:station:wmo:42051:1,2016-08-03T20:00:00Z,29.6350,-93.6417,2.0,266.6078497,10.6486525,-99999.0,'11111222,11111222,99999999' 
TABS,ioos:station:wmo:42051:1,2016-08-03T20:30:00Z,29.6350,-93.6417,2.0,205.1391631,3.954592267,-99999.0,'11133222,11111222,99999999' 
TABS,ioos:station:wmo:42051:1,2016-08-03T21:00:00Z,29.6350,-93.6417,2.0,259.8887991,8.71534853,-99999.0,'11133222,11111222,99999999' 
TABS,ioos:station:wmo:42051:1,2016-08-03T21:30:00Z,29.6350,-93.6417,2.0,274.918974,9.213929672,-99999.0,'11133222,11111222,99999999' 
TABS,ioos:station:wmo:42051:1,2016-08-03T22:00:00Z,29.6350,-93.6417,2.0,261.8615303,10.17243825,-99999.0,'11111222,11111222,99999999' 
TABS,ioos:station:wmo:42051:1,2016-08-03T22:30:00Z,29.6350,-93.6417,2.0,302.5823604,6.740867897,-99999.0,'11133222,11111222,99999999' 
TABS,ioos:station:wmo:42051:1,2016-08-03T23:00:00Z,29.6350,-93.6417,2.0,342.1353919,8.899089841,-99999.0,'11133222,11111222,99999999' 
TABS,ioos:station:wmo:42051:1,2016-08-03T23:30:00Z,29.6350,-93.6417,2.0,325.7302422,7.671896767,-99999.0,'11133222,11111222,99999999' 
TABS,ioos:station:wmo:42051:1,2016-08-04T00:00:00Z,29.6350,-93.6417,2.0,301.0420583,6.302578837,-99999.0,'11133222,11111222,99999999' 
TABS,ioos:station:wmo:42051:1,2016-08-04T00:30:00Z,29.6350,-93.6417,2.0,336.4671153,10.56903496,-99999.0,'11111222,11111222,99999999' 
TABS,ioos:station:wmo:42051:1,2016-08-04T01:00:00Z,29.6350,-93.6417,2.0,5.362430453,5.564350816,-99999.0,'11133222,11111222,99999999' 
TABS,ioos:station:wmo:42051:1,2016-08-04T01:30:00Z,29.6350,-93.6417,2.0,34.79044389,4.188758766,-99999.0,'11133222,11111222,99999999' 
TABS,ioos:station:wmo:42051:1,2016-08-04T02:00:00Z,29.6350,-93.6417,2.0,355.3298485,6.632020808,-99999.0,'11133222,11111222,99999999' 
TABS,ioos:station:wmo:42051:1,2016-08-04T02:30:00Z,29.6350,-93.6417,2.0,49.29352592,4.722584038,-99999.0,'11133222,11111222,99999999' 
TABS,ioos:station:wmo:42051:1,2016-08-04T03:00:00Z,29.6350,-93.6417,2.0,97.99897225,3.090064724,-99999.0,'11133222,11111222,99999999' 
TABS,ioos:station:wmo:42051:1,2016-08-04T03:30:00Z,29.6350,-93.6417,2.0,26.52600961,6.538264296,-99999.0,'11133222,11111222,99999999' 
TABS,ioos:station:wmo:42051:1,2016-08-04T04:00:00Z,29.6350,-93.6417,2.0,17.38882051,9.871114425,-99999.0,'11133222,11111222,99999999' 
TABS,ioos:station:wmo:42051:1,2016-08-04T04:30:00Z,29.6350,-93.6417,2.0,57.26957452,7.287008989,-99999.0,'11133222,11111222,99999999' 
TABS,ioos:station:wmo:42051:1,2016-08-04T05:00:00Z,29.6350,-93.6417,2.0,36.342574,8.690368232,-99999.0,'11133222,11111222,99999999' 
TABS,ioos:station:wmo:42051:1,2016-08-04T05:30:00Z,29.6350,-93.6417,2.0,51.54338532,8.811379007,-99999.0,'11133222,11111222,99999999' 
TABS,ioos:station:wmo:42051:1,2016-08-04T06:00:00Z,29.6350,-93.6417,2.0,50.73138805,7.788825329,-99999.0,'11133222,11111222,99999999' 
TABS,ioos:station:wmo:42051:1,2016-08-04T06:30:00Z,29.6350,-93.6417,2.0,75.39703437,8.091384307,-99999.0,'11133222,11111222,99999999' 
TABS,ioos:station:wmo:42051:1,2016-08-04T07:00:00Z,29.6350,-93.6417,2.0,55.13922729,7.872839386,-99999.0,'11133222,11111222,99999999' 
TABS,ioos:station:wmo:42051:1,2016-08-04T07:30:00Z,29.6350,-93.6417,2.0,49.05076011,6.606738984,-99999.0,'11133222,11111222,99999999' 
TABS,ioos:station:wmo:42051:1,2016-08-04T08:00:00Z,29.6350,-93.6417,2.0,42.98171078,3.212257773,-99999.0,'11133222,11111222,99999999' 
TABS,ioos:station:wmo:42051:1,2016-08-04T08:30:00Z,29.6350,-93.6417,2.0,91.79421663,4.152035645,-99999.0,'11133222,11111222,99999999' 
TABS,ioos:station:wmo:42051:1,2016-08-04T09:00:00Z,29.6350,-93.6417,2.0,80.79742455,3.626678922,-99999.0,'11133222,11111222,99999999' 
TABS,ioos:station:wmo:42051:1,2016-08-04T09:30:00Z,29.6350,-93.6417,2.0,137.2544645,1.797442628,-99999.0,'11133222,11111222,99999999' 
TABS,ioos:station:wmo:42051:1,2016-08-04T10:00:00Z,29.6350,-93.6417,2.0,100.1641459,2.550019608,-99999.0,'11133222,11111222,99999999' 
TABS,ioos:station:wmo:42051:1,2016-08-04T10:30:00Z,29.6350,-93.6417,2.0,179.9196558,7.150006993,-99999.0,'11133222,11111222,99999999' 
TABS,ioos:station:wmo:42051:1,2016-08-04T11:00:00Z,29.6350,-93.6417,2.0,149.9460732,5.291398681,-99999.0,'11133222,11111222,99999999' 
TABS,ioos:station:wmo:42051:1,2016-08-04T11:30:00Z,29.6350,-93.6417,2.0,184.7170811,9.241304021,-99999.0,'11133222,11111222,99999999' 
TABS,ioos:station:wmo:42051:1,2016-08-04T12:00:00Z,29.6350,-93.6417,2.0,165.1844822,7.313125187,-99999.0,'11133222,11111222,99999999' 
TABS,ioos:station:wmo:42051:1,2016-08-04T12:30:00Z,29.6350,-93.6417,2.0,178.7734645,9.812247449,-99999.0,'11133222,11111222,99999999' 
TABS,ioos:station:wmo:42051:1,2016-08-04T13:00:00Z,29.6350,-93.6417,2.0,182.7748564,9.501142037,-99999.0,'11133222,11111222,99999999' 
TABS,ioos:station:wmo:42051:1,2016-08-04T13:30:00Z,29.6350,-93.6417,2.0,208.5836958,8.632108665,-99999.0,'11133222,11111222,99999999' 
TABS,ioos:station:wmo:42051:1,2016-08-04T14:00:00Z,29.6350,-93.6417,2.0,222.3401856,8.076787728,-99999.0,'11133222,11111222,99999999' 
TABS,ioos:station:wmo:42051:1,2016-08-04T14:30:00Z,29.6350,-93.6417,2.0,209.7785392,8.376067096,-99999.0,'11133222,11111222,99999999' 
TABS,ioos:station:wmo:42051:1,2016-08-04T15:00:00Z,29.6350,-93.6417,2.0,210.1585613,10.98728356,-99999.0,'11111222,11111222,99999999' 
TABS,ioos:station:wmo:42051:1,2016-08-04T15:30:00Z,29.6350,-93.6417,2.0,211.390959,8.504851557,-99999.0,'11133222,11111222,99999999' 
TABS,ioos:station:wmo:42051:1,2016-08-04T16:00:00Z,29.6350,-93.6417,2.0,222.9910868,7.464562948,-99999.0,'11133222,11111222,99999999' 